Location: Oberkirch
(48.5323°N, 8.0787°E)
Time: 05:43:57
(UTC+00:00)

Cosmos 1140 Rocket - Pass Details

Date: 08 November 2025
Orbit: 740 x 761 km, 74.1° (Epoch: 10 December)

Event Time Altitude Azimuth Distance (km) Brightness Sun altitude
Exits shadow 04:15:56 30° 328° (NNW) 1,318 4.4 -21.5°
Maximum altitude 04:18:28 72° 250° (WSW) 782 3.3 -21.1°
Drops below altitude 10° 04:23:31 10° 167° (SSE) 2,246 6.1 -20.3°
Sets 04:25:52 0° 165° (SSE) 3,164 6.9 -19.9°
